Regional Weather Roundup
Issued by NWS Little Rock, AR

Home | Current Version | Previous Version | Text Only | Print | Product List | Glossary Off
Versions: 1 2 3 4 5 6 7 8 9 10 11 12 13 14 15 16 17 18 19 20 21 22 23 24 25 26 27 28 29 30 31 32 33 34 35 36 37 38 39 40 41 42 43 44 45 46 47 48 49

000
ASUS44 KLZK 210605
RWRLZK

WEATHER ROUNDUP FOR ARKANSAS
NATIONAL WEATHER SERVICE LITTLE ROCK AR
1200 AM CST SUN DEC 21 2014

NOTE: "FAIR" INDICATES FEW OR NO CLOUDS BELOW 12,000 FEET WITH NO
SIGNIFICANT WEATHER AND/OR OBSTRUCTIONS TO VISIBILITY.

ARZ001-003-010-029-210700-
NORTHWEST ARKANSAS

CITY           SKY/WX    TMP DP  RH WIND       PRES   REMARKS
FAYETTEVILLE   CLOUDY    41  39  93 CALM      30.19S
6HR MIN TEMP:  40; 6HR MAX TEMP:  41;

FORT SMITH     CLOUDY    45  40  82 NE3       30.20F
6HR MIN TEMP:  44; 6HR MAX TEMP:  46;

HARRISON       CLOUDY    40  36  86 SE6       30.19F
6HR MIN TEMP:  39; 6HR MAX TEMP:  42;

BENTONVILLE    CLOUDY    43  36  75 S6        30.18S
6HR MIN TEMP:  41; 6HR MAX TEMP:  43;

ROGERS         CLOUDY    41  36  82 S6        30.18S
6HR MIN TEMP:  41; 6HR MAX TEMP:  42;

SILOAM SPGS    CLOUDY    43  34  70 S6        30.19F
6HR MIN TEMP:  43; 6HR MAX TEMP:  43;

HIGHFILL       CLOUDY    42  37  82 S3        30.17S
6HR MIN TEMP:  41; 6HR MAX TEMP:  42;

$$

ARZ004-005-016-210700-
NORTH CENTRAL ARKANSAS

CITY           SKY/WX    TMP DP  RH WIND       PRES   REMARKS
BATESVILLE     CLEAR     36  32  87 CALM      30.25S
6HR MIN TEMP:  36; 6HR MAX TEMP:  43;

FLIPPIN        CLOUDY    39  34  81 CALM      30.21F
6HR MIN TEMP:  39; 6HR MAX TEMP:  43;

MTN HOME       CLOUDY    38  37  97 S5        30.21S
6HR MIN TEMP:  37; 6HR MAX TEMP:  41;

$$

ARZ040-041-210700-
WEST CENTRAL ARKANSAS

CITY           SKY/WX    TMP DP  RH WIND       PRES   REMARKS
MENA           CLOUDY    46  45  93 CALM      30.19F
MOUNT IDA      CLOUDY    42  40  92 CALM      30.19S
6HR MIN TEMP:  42; 6HR MAX TEMP:  46;

$$

ARZ009-017-025-026-028-210700-
NORTHEAST ARKANSAS

CITY           SKY/WX    TMP DP  RH WIND       PRES   REMARKS
CORNING        CLOUDY    41  36  81 SE9       30.26F
JONESBORO      CLOUDY    37  33  85 NE5       30.26S
6HR MIN TEMP:  33; 6HR MAX TEMP:  39;

NEWPORT        CLOUDY    40  37  89 E8        30.27S
6HR MIN TEMP:  38; 6HR MAX TEMP:  41;

WALNUT RIDGE   CLOUDY    41  34  75 E6        30.25S
6HR MIN TEMP:  41; 6HR MAX TEMP:  43;

BLYTHEVILLE    CLEAR     33  31  92 E3        30.26F
6HR MIN TEMP:  33; 6HR MAX TEMP:  39;

$$

ARZ022-023-033-042-044-210700-
CENTRAL ARKANSAS

CITY           SKY/WX    TMP DP  RH WIND       PRES   REMARKS
LITTLE ROCK    CLEAR     38  34  85 CALM      30.25S
6HR MIN TEMP:  38; 6HR MAX TEMP:  44;

N LITTLE ROCK  CLEAR     38  37  94 NE6       30.25S
6HR MIN TEMP:  37; 6HR MAX TEMP:  45;

JACKSONVILLE   CLOUDY    35  33  94 CALM      30.25S
6HR MIN TEMP:  33; 6HR MAX TEMP:  44;

SEARCY         CLOUDY    34  33  96 CALM      30.28R FOG
6HR MIN TEMP:  33; 6HR MAX TEMP:  42;

HOT SPRINGS    CLEAR     39  35  86 E3        30.23S
6HR MIN TEMP:  39; 6HR MAX TEMP:  49;

RUSSELLVILLE   CLOUDY    44  37  76 VRB3      30.22F
6HR MIN TEMP:  43; 6HR MAX TEMP:  45;

CLINTON        CLOUDY    39  37  93 CALM      30.26S FOG
$$

ARZ036-210700-
EAST ARKANSAS

CITY           SKY/WX    TMP DP  RH WIND       PRES   REMARKS
WEST MEMPHIS   CLEAR     38  33  82 E5        30.24F
6HR MIN TEMP:  37; 6HR MAX TEMP:  44;

$$

ARZ050-053-066-070-073-210700-
SOUTHWEST ARKANSAS

CITY           SKY/WX    TMP DP  RH WIND       PRES   REMARKS
ARKADELPHIA    FOG       35  35 100 CALM      30.24F VSB 1
6HR MIN TEMP:  35; 6HR MAX TEMP:  44;

CAMDEN         CLEAR     34  32  93 CALM      30.24S FOG
TEXARKANA      CLOUDY    43  41  93 E3        30.21F
6HR MIN TEMP:  40; 6HR MAX TEMP:  48;

EL DORADO      CLEAR     37  36  96 CALM      30.22F
6HR MIN TEMP:  37; 6HR MAX TEMP:  44;

DE QUEEN       CLOUDY    47  44  90 CALM      30.20S
6HR MIN TEMP:  46; 6HR MAX TEMP:  48;

$$

ARZ056-057-069-210700-
SOUTHEAST ARKANSAS

CITY           SKY/WX    TMP DP  RH WIND       PRES   REMARKS
PINE BLUFF     CLEAR     36  33  89 N5        30.25S
6HR MIN TEMP:  35; 6HR MAX TEMP:  43;

STUTTGART        N/A     37  34  87 NE6       30.25S
6HR MIN TEMP:  37; 6HR MAX TEMP:  45;

MONTICELLO     CLEAR     39  35  86 CALM      30.23S
6HR MIN TEMP:  38; 6HR MAX TEMP:  47;


$$




USA.gov is the U.S. government's official web portal to all federal, state and local government web resources and services.